Regional Weather Roundup
Issued by NWS

Home | Current Version | Previous Version | Graphics & Text | Print | Product List | Glossary On
Versions: 1 2 3 4 5 6 7 8 9 10 11 12 13 14 15 16 17 18 19 20 21 22 23 24 25 26 27 28 29 30 31 32 33 34 35 36 37 38 39 40 41 42 43 44 45 46 47 48 49 50
000
ASUS43 KLOT 241104
RWRIL

ILLINOIS REGIONAL WEATHER ROUNDUP
NATIONAL WEATHER SERVICE CHICAGO/ROMEOVILLE IL
600 AM CDT SAT JUN 24 2017

NOTE: "FAIR" INDICATES FEW OR NO CLOUDS BELOW 12,000 FEET WITH NO
SIGNIFICANT WEATHER AND/OR OBSTRUCTIONS TO VISIBILITY.

* THESE STATIONS ARE NOT UNDER NWS QUALITY CONTROL. THEY ALSO MAY NOT
  REPORT WEATHER SUCH AS PRECIPITATION OR FOG.

ILZ001-002-007-009-015-016-024-241200-
NORTHWEST ILLINOIS

CITY           SKY/WX    TMP DP  RH WIND       PRES   REMARKS
MOLINE         CLEAR     61  51  70 NW12      29.98R
STERLING*      PTCLDY    59  55  87 W8        29.96R
SAVANNA*       CLEAR     60  54  79 NW12      29.96R
$$

ILZ003-004-008-010-011-017-018-241200-
NORTH CENTRAL ILLINOIS

CITY           SKY/WX    TMP DP  RH WIND       PRES   REMARKS
ROCKFORD       PTCLDY    60  54  80 NW8       29.94R
FREEPORT*      CLEAR     56  53  88 W6        29.96S
ROCHELLE*      PTCLDY    57  55  91 W7        29.94S
DE KALB*       PTCLDY    58  55  88 W9        29.93S
PERU*          CLEAR     58  54  84 NW10      29.95S
$$

ILZ005-006-012>014-019>023-241200-
NORTHEAST ILLINOIS

CITY           SKY/WX    TMP DP  RH WIND       PRES   REMARKS
CHICAGO-OHARE  PTCLDY    62  55  77 W8        29.90S
CHICAGO-MIDWAY PTCLDY    63  56  78 W7        29.90S
AURORA         CLEAR     58  56  93 W6        29.93R
LANSING*       PTCLDY    60  55  82 W5        29.92R
JOLIET*        PTCLDY    61  58  88 W3        29.93R
WAUKEGAN       PTCLDY    61  54  77 CALM      29.89R
DUPAGE AIRPORT CLEAR     60  57  89 W8        29.91R
WHEELING       CLEAR     61  57  87 W5        29.91S
MORRIS*        PTCLDY    58  56  91 W10       29.92S
ROMEOVILLE*    PTCLDY    60  54  80 NW9       29.92S
NORTHERLY ISL    N/A     64  54  69 W7          N/A
$$

LMZ740>746-241200-
SOUTHERN LAKE MICHIGAN

STATION/POSITION SKY/WX   TEMP    WIND        PRES    VSBY  WAVE
                          AIR SEA DIR/SP/G                  HT/PER
                          (F)     (DEG/KT/KT) (MB)    (MI)  (FT/S)
SOUTHERN BUOY              62 61  310/ 14/ 16 1010.7          2/ 4
WILMETTE HARBOR            63 64  280/ 12/ 14   N/A           1/ 2
HARRISON CRIB              65     280/ 13/ 14   N/A
BURNHAM HARBOR             64                   N/A
CALUMET HARBOR             63     270/  4/  7 1012.0R
BURNS HARBOR               65     280/ 11/ 13 1012.9R
MICHIGAN CITY              65     280/ 19/ 21   N/A
MICHIGAN CITY 6N           66 68  300/ 16/ 19   N/A           4/ 4
ST. JOSEPH                 65 68  330/ 16/ 21 1012.0R         4/ 4
$$

ILZ025>027-034>036-040-047-049-050-058-095>099-241200-
WEST-CENTRAL ILLINOIS

CITY           SKY/WX    TMP DP  RH WIND       PRES   REMARKS
QUINCY         CLEAR     58  53  84 W3        30.04R
GALESBURG*     CLEAR     56  53  88 W7        30.01R
MACOMB*        CLEAR     55  53  92 W7        30.04R
JACKSONVILLE*  CLEAR     57  54  91 W6        30.03R
PITTSFIELD*    CLEAR     60  55  84 W6        30.06R
$$

ILZ028>032-037-038-041>044-048-051>054-059>061-241200-
CENTRAL ILLINOIS

CITY           SKY/WX    TMP DP  RH WIND       PRES   REMARKS
PONTIAC        CLEAR     60  58  94 W5        29.96S
BLOOMINGTON    CLEAR     60  55  83 W7        29.99R
DECATUR        CLEAR     61  56  83 W7        30.00R
PEORIA         CLEAR     60  56  86 CALM      29.98S
LACON*         PTCLDY    60  55  84 W3        29.96S
LINCOLN*       CLEAR     61  57  87 CALM      30.00R
SPRINGFIELD    CLEAR     60  56  86 W7        30.01R
TAYLORVILLE    CLEAR     59  56  88 W7        30.02R
$$

ILZ033-039-045-046-055>057-062-063-241200-
EAST-CENTRAL ILLINOIS

CITY           SKY/WX    TMP DP  RH WIND       PRES   REMARKS
CHAMPAIGN      CLEAR     57  54  89 W7        29.98R
RANTOUL*       CLEAR     59  57  94 W6        29.97R
MATTOON        PTCLDY    60  57  89 W9        29.98R
PARIS*         CLEAR     58  57  96 W6        29.98R
$$

ILZ079-100>102-241200-
SOUTHWEST ILLINOIS

CITY           SKY/WX    TMP DP  RH WIND       PRES   REMARKS
ALTON          PTCLDY    59  57  92 W7        30.05R
BELLEVILLE     CLEAR     60  54  81 SW3       30.06R
CAHOKIA*       CLEAR     64  55  72 SW7       30.05R
SPARTA*        CLEAR     61  56  82 W6        30.06R
$$

ILZ064>066-069>071-074>076-080>082-084>086-088>090-092>094-241200-
SOUTH-CENTRAL ILLINOIS

CITY           SKY/WX    TMP DP  RH WIND       PRES   REMARKS
CARBONDALE     CLOUDY    61  59  93 W3        30.04R
CAIRO*         MOCLDY    65  59  80 NW7       30.04R
EFFINGHAM*     CLEAR     58  58 100 CALM      30.02R
MARION         CLOUDY    63  63 100 CALM      30.05R
MT. VERNON     CLEAR     58  58 100 CALM      30.03R
CENTRALIA*     CLEAR     60  58  92 W6        30.03R
SALEM*         CLEAR     60  57  89 W3        30.03R
METROPOLIS*    MOCLDY    63  61  94 CALM      30.04R
$$

ILZ067-068-072-073-078-083-087-091-241200-
SOUTHEAST ILLINOIS

CITY           SKY/WX    TMP DP  RH WIND       PRES   REMARKS
LAWRENCEVILLE  CLOUDY    62  59  90 W7        29.99R
FLORA*         CLOUDY    63  58  82 W7        30.02R
FAIRFIELD*     CLOUDY    62  58  89 CALM      30.01R
HARRISBURG*    PTCLDY    63  60  90 W6        30.03R
ROBINSON*      CLEAR     58  56  95 CALM      29.99R
CARMI*         PTCLDY    62  60  91 NW7       30.00R
$$

ABBREVIATIONS USED IN REMARKS
   TC - TEMPERATURE IN CELSIUS
  WCI - WIND CHILL INDEX
   HX - HEAT INDEX
  VSB - VISIBILITY
$$





USA.gov is the U.S. government's official web portal to all federal, state and local government web resources and services.